Regional Weather Roundup
Issued by NWS State College, PA

Home | Current Version | Previous Version | Text Only | Print | Product List | Glossary On
Versions: 1 2 3 4 5 6 7 8 9 10 11 12 13 14 15 16 17 18 19 20 21 22 23 24 25 26 27 28 29 30 31 32 33 34 35 36 37 38 39 40 41 42 43 44 45 46 47 48 49 50
923
ASUS41 KCTP 090403
RWRCTP

REGIONAL WEATHER ROUNDUP
NATIONAL WEATHER SERVICE STATE COLLEGE PA
1100 PM EST MON FEB 08 2016

Note: "fair" indicates few or no clouds below 12,000 feet with no
significant weather and/or obstructions to visibility.

* = STATION THAT DOES NOT REPORT PRECIPITATION /E.G. RAIN...SNOW...ETC/
    THUNDER OR FOG.

PAZ002>004-007>009-013>016-020>023-029>032-090500-
WESTERN PENNSYLVANIA

CITY           SKY/WX    TMP DP  RH WIND       PRES   REMARKS
ERIE           CLOUDY    35  31  85 SW8       29.55F
MEADVILLE      CLOUDY    32  29  88 VRB6      29.54F
FRANKLIN*      CLOUDY    32  28  86 SW7       29.57S
NEW CASTLE     CLOUDY    33  30  88 SW5       29.58F
BEAVER COUNTY  NOT AVBL
BUTLER*        CLOUDY    34  28  80 W5        29.60F
PITTSBURGH INT CLOUDY    33  30  88 W5        29.58F
PITTSBURGH     CLOUDY    35  30  82 SW6       29.58S
INDIANA*       CLOUDY    34  32  93 W9        29.60F
LATROBE        CLOUDY    34  32  93 CALM      29.60F
WASHINGTON CO* MOCLDY    32  28  86 CALM      29.59F
$$

PAZ004>006-010>012-017>019-024>028-033>037-041-042-045-046-049>053-090500-
CENTRAL PENNSYLVANIA

CITY           SKY/WX    TMP DP  RH WIND       PRES   REMARKS
BRADFORD       CLOUDY    31  24  75 SE8       29.51F
DUBOIS         LGT SNOW  30  27  88 S5        29.54S FOG
CLEARFIELD     CLOUDY    34  26  72 CALM      29.57F
JOHNSTOWN      CLOUDY    30  26  85 S7        29.53F
ALTOONA        CLOUDY    33  27  78 CALM      29.58F
STATE COLLEGE  CLOUDY    33  29  85 CALM      29.60F
WILLIAMSPORT   FLURRIES  34  30  85 SE9       29.65F
SELINSGROVE    LGT SNOW  33  31  92 SE3       29.66F FOG
FT INDIANTOWN  LGT SNOW  32  32 100 NE3       29.68F FOG
CAPITAL CITY   LGT SNOW  34  31  88 E7        29.67F FOG
HARRISBURG     LGT SNOW  34  32  92 E6        29.67F
YORK           MIX PCPN  34  32  92 E5        29.66F FOG
$$

PAZ038>040-043-044-047-048-054-055-060>062-067>071-090500-
EASTERN PENNSYLVANIA

CITY           SKY/WX    TMP DP  RH WIND       PRES   REMARKS
SCRANTON       CLOUDY    32  17  54 VRB5      29.66R
MOUNT POCONO   CLOUDY    24  17  74 E10       29.63F WCI  14
ALLENTOWN      LGT SNOW  32  26  78 SE5       29.73R
QUAKERTOWN*    CLOUDY    32  28  86 SE6       29.73S
READING        LGT SNOW  32  29  88 SE7       29.70F FOG
LANCASTER      LGT SNOW  32  32 100 SE10      29.69S VSB 1
COATESVILLE    LGT SNOW  30  32 100 E10       29.70F
POTTSTOWN      LGT SNOW  30  28  92 E6        29.73F FOG
BLUE BELL        N/A     30  28  93 E3        29.72F
DOYLESTOWN     LGT SNOW  29  26  89 CALM      29.72F FOG
WILLOW GROVE   NOT AVBL
NORTH PHILA    CLOUDY    32  28  85 E9        29.76F
PHILADELPHIA   LGT SNOW  32  28  85 E8        29.75F FOG
$$




USA.gov is the U.S. government's official web portal to all federal, state and local government web resources and services.